Lawrence, KS

2:30 PM CDT on August 30, 2016 (GMT -0500)
Lawrence Municipal

Weather History for KLWC - March, 2013

Change the Weather History Date:

Sunday, March 31, 2013

  Actual Average Record
Temperature  
Mean Temperature 53 °F 50 °F  
Max Temperature 68 °F 63 °F 85 °F (2012)
Min Temperature 37 °F 37 °F 28 °F (1997)
Degree Days  
Heating Degree Days 12 15  
Month to date heating degree days 816 641  
Since 1 July heating degree days 4647 4656  
Cooling Degree Days 0 0  
Month to date cooling degree days 0 3  
Year to date cooling degree days 0 3  
Growing Degree Days 2 (Base 50)    
Moisture  
Dew Point 38 °F    
Average Humidity 56    
Maximum Humidity 86    
Minimum Humidity 26    
Precipitation  
Precipitation T in 0.09 in 0.12 in (2007)
Month to date precipitation 1.68 2.62  
Year to date precipitation 4.40 4.93  
Sea Level Pressure  
Sea Level Pressure 29.96 in    
Wind  
Wind Speed 9 mph (NW)    
Max Wind Speed 21 mph    
Max Gust Speed 28 mph    
Visibility 9 miles    
Events Rain    
T = Trace of Precipitation, MM = Missing Value Source: NWS Daily Summary

Daily Weather History Graph

Daily Weather History Graph

Search for Another Location

Airport or City:

Trip Planner

Search our weather history database for the weather conditions in past years. The results will help you decide how hot, cold, wet, or windy it might be!

Date:

Astronomy

Mar. 31, 2013 Rise Set
Actual Time 7:06 AM CDT 7:43 PM CDT
Civil Twilight 6:39 AM CDT 8:10 PM CDT
Nautical Twilight 6:08 AM CDT 8:42 PM CDT
Astronomical Twilight 5:35 AM CDT 9:15 PM CDT
Moon No Moon Rise 9:57 AM CDT (3/31)
Length of Visible Light 13h 31m
Length of Day
12h 37m
Waning Gibbous, 77% of the Moon is Illuminated
Mar 31
Waning Gibbous
Apr 2
Last Quarter
Apr 10
New
Apr 18
First Quarter
Apr 25
Full

Hourly Weather History & Observations

Time (CDT) Temp. Windchill Dew Point Humidity Pressure Visibility Wind Dir Wind Speed Gust Speed Precip Events Conditions
12:52 AM 52.0 °F - 43.0 °F 71% 29.94 in 8.0 mi NW 3.5 mph - N/A   Mostly Cloudy
1:52 AM 48.9 °F - 43.0 °F 80% 29.96 in 7.0 mi NNW 6.9 mph - N/A   Overcast
2:52 AM 51.1 °F - 44.1 °F 77% 29.99 in 6.0 mi NW 3.5 mph - N/A   Haze
3:52 AM 51.1 °F - 44.1 °F 77% 29.97 in 6.0 mi West 8.1 mph - 0.00 in Rain Light Rain
4:52 AM 50.0 °F - 43.0 °F 77% 29.96 in 9.0 mi WNW 9.2 mph - 0.00 in   Overcast
5:52 AM 46.9 °F - 42.1 °F 83% 29.95 in 10.0 mi NW 5.8 mph - N/A   Mostly Cloudy
6:52 AM 46.0 °F 41.9 °F 43.0 °F 89% 29.97 in 9.0 mi NW 8.1 mph - N/A   Overcast
7:52 AM 46.9 °F - 43.0 °F 86% 29.98 in 9.0 mi NNW 4.6 mph - N/A   Clear
8:52 AM 53.1 °F - 45.0 °F 74% 29.97 in 10.0 mi WNW 9.2 mph - N/A   Clear
9:52 AM 57.0 °F - 45.0 °F 64% 29.96 in 10.0 mi WNW 11.5 mph - N/A   Clear
10:52 AM 61.0 °F - 45.0 °F 56% 29.96 in 10.0 mi West 9.2 mph - N/A   Clear
11:52 AM 64.0 °F - 42.1 °F 45% 29.96 in 10.0 mi WNW 15.0 mph - N/A   Clear
12:52 PM 64.0 °F - 39.9 °F 41% 29.96 in 10.0 mi NNW 19.6 mph 26.5 mph N/A   Partly Cloudy
1:52 PM 66.0 °F - 39.0 °F 37% 29.96 in 10.0 mi North 12.7 mph 19.6 mph N/A   Clear
2:52 PM 66.9 °F - 36.0 °F 32% 29.96 in 4.0 mi NNW 17.3 mph 21.9 mph N/A   Haze
3:52 PM 66.0 °F - 32.0 °F 28% 29.96 in 10.0 mi NNW 11.5 mph 19.6 mph N/A   Clear
4:52 PM 64.9 °F - 30.0 °F 27% 29.95 in 10.0 mi North 13.8 mph 21.9 mph N/A   Clear
5:52 PM 64.0 °F - 28.0 °F 26% 29.95 in 10.0 mi North 12.7 mph 18.4 mph N/A   Clear
6:52 PM 61.0 °F - 28.9 °F 30% 29.96 in 10.0 mi North 9.2 mph - N/A   Clear
7:52 PM 54.0 °F - 26.1 °F 34% 29.97 in 10.0 mi North 4.6 mph - N/A   Clear
8:52 PM 46.9 °F - 28.9 °F 50% 29.97 in 10.0 mi Calm Calm - N/A   Clear
9:52 PM 41.0 °F - 30.0 °F 65% 29.96 in 10.0 mi Calm Calm - N/A   Clear
10:52 PM 37.9 °F 35.5 °F 30.0 °F 73% 29.99 in 8.0 mi North 3.5 mph - N/A   Clear
11:52 PM 43.0 °F 38.2 °F 33.1 °F 68% 29.99 in 10.0 mi NW 8.1 mph - N/A   Overcast